Tracking 24266 objects as of 9-Dec-2021
HD Live streaming from Space Station
objects crossing your sky now

GUARANISAT-1 (BIRDS-4)

Track GUARANISAT-1 (BIRDS-4) now!
10-day predictions
GUARANISAT-1 (BIRDS-4) is classified as:


NORAD ID: 47931
Int'l Code: 1998-067SH
Perigee: 403.6 km
Apogee: 404.3 km
Inclination: 51.6 °
Period: 92.5 minutes
Semi major axis: 6774 km
RCS: Unknown
Launch date: November 20, 1998
Source: (TBD)
Launch site: TYURATAM MISSILE AND SPACE COMPLEX (TTMTR)

Uplink (MHz): 145.825
Downlink (MHz): 145.825
Beacon (MHz): 437.375
Mode: 4k8FSK APRS CW
Call sign: JG6YMZ
Status: Active

aabbcc
Your satellite tracking list
Your tracking list is empty




NASA's NSSDC Master Catalog

Two Line Element Set (TLE):
1 47931U 98067SH  21342.87718950  .00011780  00000-0  16747-3 0  9996
2 47931  51.6397 191.4171 0000535 230.0434 130.0511 15.56850310 41897
Source of the keplerian elements: Caltech